Preview of NWS' New Version of Forecast
This preview is not operational and should not be used for support decisions.

Regional Weather Roundup (RWR)

Issued by National Weather Service (NWS)

                            
000
ASUS42 KTBW 172115
RWRFL 
FLORIDA REGIONAL WEATHER ROUNDUP
NATIONAL WEATHER SERVICE TAMPA BAY RUSKIN FL
500 PM EDT MON JUN 17 2019

NOTE: "FAIR" INDICATES FEW OR NO CLOUDS BELOW 12,000 FEET WITH NO
SIGNIFICANT WEATHER AND/OR OBSTRUCTIONS TO VISIBILITY.

FLZ001>010-012>015-112-114-115-172200-
PANHANDLE FLORIDA
  
CITY           SKY/WX    TMP DP  RH WIND       PRES   REMARKS
PENSACOLA      PTSUNNY   89  76  65 S13       29.97S HX 100           
PENSACOLA NAS  PTSUNNY   88  75  65 S15       29.96F HX  97           
MILTON NAS     PTSUNNY   87  74  64 S15       29.96F HX  95           
CRESTVIEW      FAIR      91  68  46 S10       29.97F HX  95           
DUKE FIELD     FAIR      90  71  53 S12       29.96F HX  96           
VALPARAISO     PTSUNNY   87  73  61 S13       29.96F                  
MARY ESTHER    FAIR      87  75  66 S9        29.95F HX  97           
TRI COUNTY     FAIR      87  74  64 S16       29.99  HX  95           
PANAMA CITY    FAIR      85  73  67 SE14      29.97F                  
TYNDALL AFB    FAIR      86  74  66 S12       29.97F                  
APALACHICOLA   FAIR      85  73  67 SE10      29.99F                  

STATION/POSITION SKY/WX   TEMP    WIND        PRES    WAVE   SWELL
                          AIR SEA DIR/SP/G            HT/PER HT/PER
                          (F)     (DEG/KT/KT) (MB)    (FT/S) (FT/S)
30.1N   87.6W                                   N/A     2/ 3
29.2N   88.2W                     150/  8/ 10 1014.7F   2/ 4   2/ 4
PANAMA CITY BEAC           83 86  160/ 13/ 14 1015.7F
TOWER C          NOT AVBL

$$
FLZ011-016>038-118-127-128-134-139-239-172200-
NORTH FLORIDA
  
CITY           SKY/WX    TMP DP  RH WIND       PRES   REMARKS
MARIANNA       FAIR      88  75  65 S14G21    29.98F HX  97           
TALLAHASSEE    PTSUNNY   83  76  79 S3        30.00F                  
PERRY          FAIR      86  74  66 W7        30.00F                  
LIVE OAK       PTSUNNY   84  73  70 SE16G24   30.02R                  
CROSS CITY     TSTM      73  72  98 NE7       30.04R VSB 1/2          
LAKE CITY      CLOUDY    75  70  83 S9        30.05R                  
GAINESVILLE    PTSUNNY   80  74  81 NE3       30.07F                  
PALATKA        FAIR      77  73  88 S3        30.04F                  
MAYPORT NAS    PTSUNNY   83  72  69 SE14      30.05F                  
JACKSONVILLE   PTSUNNY   84  69  60 SE15      30.03F                  
JAX NAS        PTSUNNY   83  70  64 SE15      30.05S                  
JAX CECIL      MOSUNNY   82  72  69 E14       30.04S                  
FERNANDINA BEA FAIR      85  72  64 SE14      30.05F                  
ST AUGUSTINE   FAIR      80  74  81 SE15      30.07F                  
PALM COAST     SUNNY     79  72  78 SE10      30.06R                  

STATION/POSITION SKY/WX   TEMP    WIND        PRES    WAVE   SWELL
                          AIR SEA DIR/SP/G            HT/PER HT/PER
                          (F)     (DEG/KT/KT) (MB)    (FT/S) (FT/S)
SHELL POINT      NOT AVBL
KEATON BEACH               82     170/  9/ 10 1016.0F
CEDAR KEY                                       N/A
FERNANDINA                 87 85  140/ 11/ 17 1018.5F
30.7N   81.3W                 83                N/A     2/ 7
MAYPORT                    81 83  130/ 11/ 14 1018.1F
31.4N   80.9W              81 84  140/ 12/ 14 1017.9F   2/ 7   2/ 7
ST AUGUSTINE               79 83  140/ 15/ 16 1017.9R

$$
FLZ040-043>046-052-053-057-058-063-144-172200-
INTERIOR CENTRAL FLORIDA
  
CITY           SKY/WX    TMP DP  RH WIND       PRES   REMARKS
OCALA          PTSUNNY   80  71  74 VRB5      30.04F                  
LEESBURG       PTSUNNY   78  71  79 SE10      30.04R                  
SANFORD        FAIR      83  73  72 SE17      30.04R                  
ORLANDO EXEC   TSTM      73  72  96 SW22G32   30.05R VSB 1/4          
ORLANDO INTL   TSTM      76  73  91 SW5       30.05R FOG              
KISSIMMEE      CLOUDY    81  74  79 E5        30.06R                  
WINTER HAVEN   PTSUNNY   80  74  81 SE10      30.03F                  
LAKELAND       LGT RAIN  79  73  83 SE9       30.02S                  
SEBRING        CLOUDY    76  74  92 SE13      30.05S                  
OKEECHOBEE     LGT RAIN  75  73  94 S7        30.06R                  

$$
FLZ041-047-054-059-064-141-147-172200-
EAST CENTRAL FLORIDA
  
CITY           SKY/WX    TMP DP  RH WIND       PRES   REMARKS
ORMOND BEACH   SUNNY     82  73  74 E14G20    30.05S                  
DAYTONA BEACH  PTSUNNY   84  76  76 SE9G17    30.04S                  
DELAND         FAIR      86  72  62 E12       30.03S                  
NEW SMYRNA BEA MOSUNNY   82  73  74 SE16      30.07R                  
JFK SPACE CTR  FAIR      82  66  58 SE10      30.05R                  
TITUSVILLE     MOSUNNY   84  73  70 SE14      30.06R                  
CAPE CANAVERAL PTSUNNY   81 -29   1 SE12      30.04R                  
PATRICK AFB    FAIR      81  77  88 SE16      30.04S                  
MELBOURNE      PTSUNNY   81  73  76 SE12      30.04S                  
VERO BEACH     PTSUNNY   76  73  91 S10       30.06S                  
FT PIERCE      LGT RAIN  76  73  91 S7        30.06S FOG              
STUART         CLOUDY    77  73  88 S7        30.07S                  

STATION/POSITION SKY/WX   TEMP    WIND        PRES    WAVE   SWELL
                          AIR SEA DIR/SP/G            HT/PER HT/PER
                          (F)     (DEG/KT/KT) (MB)    (FT/S) (FT/S)
28.5N   80.2W              80 81  140/ 16/ 17 1017.8R   3/ 4   2/ 8
28.9N   78.5W              77 83  110/  8/ 10 1019.8    3/ 8   2/ 8
TRIDENT PIER               80 80  130/  7/ 13 1019.1R
28.4N   80.5W                 78                N/A     3/ 5
27.5N   80.2W                 78                N/A     4/ 5

$$
FLZ050-056-061-142-242-148-248-149-249-151-251-155-255-
160-260-172200-
WEST CENTRAL FLORIDA
  
CITY           SKY/WX    TMP DP  RH WIND       PRES   REMARKS
CRYSTAL RIVER  LGT RAIN  75  73  94 CALM      30.04R                  
INVERNESS      FAIR      79  77  94 CALM      30.03R                  
BROOKSVILLE    TSTM      76  73  91 CALM      30.05R VSB 3/4          
CLEARWATER AIR FAIR      82  70  65 SW7       30.00S                  
ST PETE CLEARW PTSUNNY   85  73  67 S10       30.00R                  
TAMPA INTL     PTSUNNY   85  76  74 S10       30.00S                  
TAMPA EXEC     RAIN      81  73  78 SW5G17    30.01S                  
PLANT CITY     PTSUNNY   84  73  70 E12G18    30.03S                  
MACDILL AFB    FAIR      84  75  73 S12       30.00S                  
PETER O KNIGHT PTSUNNY   84  77  79 SW6       30.01S                  
ST PETERSBURG  FAIR      82  75  79 S9        30.01F                  
SARASOTA       PTSUNNY   83  74  74 S10       29.98F                  
VENICE         PTSUNNY   82  75  78 S14       30.01F                  

STATION/POSITION SKY/WX   TEMP    WIND        PRES    WAVE   SWELL
                          AIR SEA DIR/SP/G            HT/PER HT/PER
                          (F)     (DEG/KT/KT) (MB)    (FT/S) (FT/S)
27.3N   84.2W                 83                N/A     2/ 5
CLEARWATER BEACH           83 86  190/ 12/ 14 1015.9R
MIDDLE TAMPA BAY           82     190/ 11/ 12 1016.0F
VENICE                     80 85  180/ 11/ 12 1016.4R

$$
FLZ066-069-070-075>078-162-262-165-265-172200-
SOUTHWEST FLORIDA AND KEYS
  
CITY           SKY/WX    TMP DP  RH WIND       PRES   REMARKS
PUNTA GORDA    CLOUDY    80  74  81 S10       30.03R                  
FT MYERS       LGT RAIN  70  70 100 S6        30.02S                  
SOUTHWEST INTL LGT RAIN  81  72  74 S12       30.03F                  
NAPLES         LGT RAIN  74 N/A N/A E6        30.02F                  
IMMOKALEE      LGT RAIN  75  73  94 CALM      30.03S                  
MARATHON       FAIR      84  76  76 E7        30.02S                  
KEY WEST NAS   PTSUNNY   87  77  72 SE8       30.01F HX  99           
KEY WEST INTL  FAIR      84  77  79 SE7       30.02S                  

STATION/POSITION SKY/WX   TEMP    WIND        PRES    WAVE   SWELL
                          AIR SEA DIR/SP/G            HT/PER HT/PER
                          (F)     (DEG/KT/KT) (MB)    (FT/S) (FT/S)
NAPLES                     76 85              1016.8F
DRY TORTUGAS               85     180/  9/ 10 1016.0F
SAND KEY                   82                 1016.4F
SOMBRERO KEY               81                 1016.0F

$$
FLZ067-068-071>074-168-172>174-172200-
SOUTHEAST FLORIDA 
  
CITY           SKY/WX    TMP DP  RH WIND       PRES   REMARKS
W PALM BEACH   LGT RAIN  79  74  84 S6        30.06F                  
BOCA RATON     MOSUNNY   79  75  89 SW6       30.06S                  
FT LAUDER-EXEC CLOUDY    74  72  93 NW10      30.06S THUNDER FOG      
FT LAUDERDALE  TSTM      73  70  90 CALM      30.05F FOG              
POMPANO BEACH  HVY RAIN  77  73  87 W13G18    30.06S FOG              
PEMBROKE PINES LGT RAIN  74  71  91 N6        30.07F                  
OPA LOCKA      LGT RAIN  75  72  90 N3        30.06S                  
MIAMI          CLOUDY    78  73  84 NW3       30.05F                  
WEST KENDALL   FAIR      81  76  84 NW7       30.04F                  
HOMESTEAD      FAIR      81  75  82 CALM      30.03F                  

STATION/POSITION SKY/WX   TEMP    WIND        PRES    WAVE   SWELL
                          AIR SEA DIR/SP/G            HT/PER HT/PER
                          (F)     (DEG/KT/KT) (MB)    (FT/S) (FT/S)
VIRGINIA KEY               81 84  260/  5/  9 1016.9F
LAKE WORTH                 78 83  190/  6/  8 1018.9S
SETTLEMENT POINT           74     130/  8/ 10 1018.9R

$$